Location: Gourdan-Polignan
(43.0709°N, 0.5748°E)
Time: 15:15:03
(UTC+00:00)

Cosmos 2219 Rocket - Pass Details

Date: 15 May 2026
Orbit: 825 x 846 km, 71.0° (Epoch: 10 June)

Event Time Altitude Azimuth Distance (km) Brightness Sun altitude
Rises 23:43:31 0° 317° (NW) 3,406 6.1 -27.8°
Reaches altitude 10° 23:47:02 10° 295° (WNW) 2,468 4.9 -27.9°
Enters shadow 23:49:53 15° 265° (W) 2,134 4.2 -27.9°
